DW1354 Weather Reports


Display with metric or nautical units.
time (UTC)temp
F
wind
direction
speed
MPH
gust
MPH
rain 1hr
in
rain 24hr
in
rain mn
in
humidity
%
barometer
mb
20211019081522 48 0.0 0.0 0.00 0.00 0.00 79 1019.2
20211019080520 48 0.0 0.0 0.00 0.00 0.00 78 1019.1
20211019075515 48 0.0 0.0 0.00 0.00 0.00 79 1019.2
20211019074520 48 0.0 0.0 0.00 0.00 0.00 79 1019.3
20211019073520 48 0.0 0.0 0.00 0.00 0.00 78 1019.2
20211019072520 48 0.0 0.0 0.00 0.00 0.00 78 1019.2
20211019071520 48 0.0 0.0 0.00 0.00 0.00 78 1019.2
20211019070520 48 0.0 0.0 0.00 0.00 0.00 78 1019.1
20211019065520 48 0.0 0.0 0.00 0.00 0.00 78 1019.2
20211019064516 48 0.0 0.0 0.00 0.00 0.00 77 1019.2
20211019063520 48 0.0 0.0 0.00 0.00 0.00 76 1019.2
20211019062520 48 0.0 0.0 0.00 0.00 0.00 75 1019.2
20211019061520 48 0.0 0.0 0.00 0.00 0.00 75 1019.2
20211019060520 48 0.0 0.0 0.00 0.00 0.00 75 1019.2
20211019055520 49 0.0 0.0 0.00 0.00 0.00 74 1018.9
20211019054520 49 0.0 0.0 0.00 0.00 0.00 75 1018.9
20211019053514 49 0.0 0.0 0.00 0.00 0.00 74 1018.9
20211019052520 49 0.0 0.0 0.00 0.00 0.00 76 1018.9
20211019051521 49 0.0 0.0 0.00 0.00 0.00 77 1018.8
20211019050522 49 0.0 0.0 0.00 0.00 0.00 74 1018.9
20211019045520 49 0.0 0.0 0.00 0.00 0.00 72 1018.8
20211019044518 49 0.0 0.0 0.00 0.00 0.00 73 1018.9
20211019043525 50 0.0 0.0 0.00 0.00 0.00 74 1018.9
20211019042522 50 0.0 0.0 0.00 0.00 0.00 73 1019.0
20211019041522 50 0.0 0.0 0.00 0.00 0.00 73 1018.9
20211019040520 50 0.0 0.0 0.00 0.00 0.00 72 1018.8
20211019035522 50 0.0 0.0 0.00 0.00 0.00 73 1018.9
20211019034521 50 0.0 0.0 0.00 0.00 0.00 73 1018.9
20211019033516 50 0.0 0.0 0.00 0.00 0.00 75 1018.8
20211019032515 51 0.0 0.0 0.00 0.00 0.00 73 1018.8
20211019031522 51 0.0 0.0 0.00 0.00 0.00 71 1018.8
20211019030522 51 0.0 0.0 0.00 0.00 0.00 73 1018.7
20211019025523 51 0.0 0.0 0.00 0.00 0.00 73 1018.5
20211019024522 51 0.0 0.0 0.00 0.00 0.00 71 1018.4
20211019023522 51 0.0 0.0 0.00 0.00 0.00 72 1018.3
20211019022517 52 0.0 0.0 0.00 0.00 0.00 72 1018.4
20211019021523 52 0.0 0.0 0.00 0.00 0.00 73 1018.3
20211019020522 52 0.0 0.0 0.00 0.00 0.00 71 1018.2
20211019015522 52 0.0 0.0 0.00 0.00 0.00 72 1017.9
20211019014524 52 0.0 0.0 0.00 0.00 0.00 70 1017.9
20211019013525 52 0.0 0.0 0.00 0.00 0.00 72 1017.8
20211019012519 53 0.0 0.0 0.00 0.00 0.00 72 1017.7
20211019011520 53 0.0 0.0 0.00 0.00 0.00 69 1017.4
20211019010522 53 0.0 0.0 0.00 0.00 0.00 70 1017.2
20211019005522 53 0.0 0.0 0.00 0.00 0.00 68 1017.2
20211019004522 53 0.0 0.0 0.00 0.00 0.00 71 1017.0
20211019003522 53 0.0 0.0 0.00 0.00 0.00 71 1017.1
20211019002522 53 0.0 0.0 0.00 0.00 0.00 68 1016.9
20211019001516 53 0.0 0.0 0.00 0.00 0.00 68 1016.8
20211019000517 54 0.0 0.0 0.00 0.00 0.00 72 1016.7
20211018235523 54 0.0 0.0 0.00 0.00 0.00 70 1016.6
20211018234521 54 0.0 0.0 0.00 0.00 0.00 69 1016.3
20211018233522 54 0.0 0.0 0.00 0.00 0.00 68 1016.1
20211018232522 54 0.0 0.0 0.00 0.00 0.00 68 1015.9
20211018231521 54 0.0 0.0 0.00 0.00 0.00 71 1015.7
20211018230518 55 0.0 0.0 0.00 0.00 0.00 69 1015.6
20211018225522 55 0.0 0.0 0.00 0.00 0.00 69 1015.4
20211018224521 55 0.0 0.0 0.00 0.00 0.00 69 1015.3
20211018223523 56 0.0 0.0 0.00 0.00 0.00 68 1015.1
20211018222522 56 0.0 0.0 0.00 0.00 0.00 68 1015.1
20211018221521 56 0.0 0.0 0.00 0.00 0.00 69 1015.0
20211018220521 57 0.0 0.0 0.00 0.00 0.00 65 1014.9
20211018215518 58 0.0 0.0 0.00 0.00 0.00 67 1014.9
20211018214522 59 0.0 0.0 0.00 0.00 0.00 68 1014.8
20211018213521 59 0.0 0.0 0.00 0.00 0.00 65 1014.7
20211018212522 61 0.0 0.0 0.00 0.00 0.00 63 1014.6
20211018211521 62 0.0 0.0 0.00 0.00 0.00 62 1014.5
20211018210522 62 0.0 0.0 0.00 0.00 0.00 61 1014.4
20211018205518 63 0.0 0.0 0.00 0.00 0.00 58 1014.3
20211018204518 63 0.0 0.0 0.00 0.00 0.00 56 1014.2
20211018203523 64 0.0 0.0 0.00 0.00 0.00 52 1014.2
20211018202521 64 0.0 0.0 0.00 0.00 0.00 51 1014.0
20211018201523 65 0.0 0.0 0.00 0.00 0.00 46 1013.9
20211018200523 65 0.0 0.0 0.00 0.00 0.00 45 1013.8
20211018195523 65 0.0 0.0 0.00 0.00 0.00 48 1013.9
20211018194517 65 0.0 0.0 0.00 0.00 0.00 46 1013.9
20211018193516 65 0.0 0.0 0.00 0.00 0.00 47 1013.8
20211018192522 65 0.0 0.0 0.00 0.00 0.00 45 1013.8
20211018191522 66 0.0 0.0 0.00 0.00 0.00 44 1013.7
20211018190522 66 0.0 0.0 0.00 0.00 0.00 47 1013.7
20211018185521 66 0.0 0.0 0.00 0.00 0.00 46 1013.7
20211018184521 66 0.0 0.0 0.00 0.00 0.00 45 1013.7
20211018183516 66 0.0 0.0 0.00 0.00 0.00 44 1013.9
20211018182523 66 0.0 0.0 0.00 0.00 0.00 49 1014.1
20211018181522 65 0.0 0.0 0.00 0.00 0.00 49 1014.1
20211018180521 65 0.0 0.0 0.00 0.00 0.00 51 1014.1
20211018175521 65 0.0 0.0 0.00 0.00 0.00 50 1014.3
20211018174521 65 0.0 0.0 0.00 0.00 0.00 52 1014.3
20211018173521 64 0.0 0.0 0.00 0.00 0.00 54 1014.5
20211018172516 64 0.0 0.0 0.00 0.00 0.00 55 1014.7
20211018171524 63 0.0 0.0 0.00 0.00 0.00 52 1014.8
20211018170523 63 0.0 0.0 0.00 0.00 0.00 53 1015.1
20211018165523 62 0.0 0.0 0.00 0.00 0.00 58 1015.1
20211018164523 62 0.0 0.0 0.00 0.00 0.00 54 1015.2
20211018163521 62 0.0 0.0 0.00 0.00 0.00 57 1015.3
20211018162516 62 0.0 0.0 0.00 0.00 0.00 59 1015.6
20211018161516 62 0.0 0.0 0.00 0.00 0.00 57 1015.7
20211018160521 61 0.0 0.0 0.00 0.00 0.00 57 1015.8
20211018155521 62 0.0 0.0 0.00 0.00 0.00 57 1016.1
20211018154523 62 0.0 0.0 0.00 0.00 0.00 60 1016.0
20211018153521 61 0.0 0.0 0.00 0.00 0.00 60 1016.0
20211018152523 61 0.0 0.0 0.00 0.00 0.00 62 1016.1
20211018151516 60 0.0 0.0 0.00 0.00 0.00 61 1016.2
20211018150523 60 0.0 0.0 0.00 0.00 0.00 60 1016.5
20211018145522 59 0.0 0.0 0.00 0.00 0.00 59 1016.5
20211018144521 59 0.0 0.0 0.00 0.00 0.00 62 1016.4
20211018143521 58 0.0 0.0 0.00 0.00 0.00 64 1016.4
20211018142523 58 0.0 0.0 0.00 0.00 0.00 65 1016.5
20211018141521 57 0.0 0.0 0.00 0.00 0.00 68 1016.4
20211018140517 56 0.0 0.0 0.00 0.00 0.00 66 1016.4
20211018135522 56 0.0 0.0 0.00 0.00 0.00 69 1016.4
20211018134521 55 0.0 0.0 0.00 0.00 0.00 67 1016.4
20211018133521 55 0.0 0.0 0.00 0.00 0.00 68 1016.4
20211018132522 55 0.0 0.0 0.00 0.00 0.00 69 1016.3
20211018131522 54 0.0 0.0 0.00 0.00 0.00 70 1016.4
20211018130516 54 0.0 0.0 0.00 0.00 0.00 71 1016.4
20211018125516 53 0.0 0.0 0.00 0.00 0.00 70 1016.3
20211018124522 53 0.0 0.0 0.00 0.00 0.00 72 1016.4
20211018123521 0 0.0 0.0 0.00 0.00 0.00
20211018122521 0 0.0 0.0 0.00 0.00 0.00
20211018121521 0 0.0 0.0 0.00 0.00 0.00
20211018120605 0 0.0 0.0 0.00 0.00 0.00
20211018120021 0 0.0 0.0 0.00 0.00 0.00
20211018115021 0 0.0 0.0 0.00 0.00 0.00
20211018114521 0 0.0 0.0 0.00 0.00 0.00
20211018113522 0 0.0 0.0 0.00 0.00 0.00
20211018113018 0 0.0 0.0 0.00 0.00 0.00
20211018112521 0 0.0 0.0 0.00 0.00 0.00
20211018111516 0 0.0 0.0 0.00 0.00 0.00
20211018111021 0 0.0 0.0 0.00 0.00 0.00
20211018110021 0 0.0 0.0 0.00 0.00 0.00
20211018105620 0 0.0 0.0 0.00 0.00 0.00
20211018105026 0 0.0 0.0 0.00 0.00 0.00
20211018104051 0 0.0 0.0 0.00 0.00 0.00
20211018103543 49 0.0 0.0 0.00 0.00 0.00 82 1015.3
20211018103022 49 0.0 0.0 0.00 0.00 0.00 82 1015.4
20211018102022 48 0.0 0.0 0.00 0.00 0.00 83 1015.2
20211018101021 48 0.0 0.0 0.00 0.00 0.00 84 1015.1
20211018100021 48 0.0 0.0 0.00 0.00 0.00 84 1015.2
20211018095016 48 0.0 0.0 0.00 0.00 0.00 84 1015.3
20211018094017 48 0.0 0.0 0.00 0.00 0.00 84 1015.2
20211018093022 48 0.0 0.0 0.00 0.00 0.00 83 1015.1
20211018092022 48 0.0 0.0 0.00 0.00 0.00 83 1015.1
20211018091021 48 0.0 0.0 0.00 0.00 0.00 83 1015.1
20211018090021 48 0.0 0.0 0.00 0.00 0.00 82 1015.0
20211018085021 48 0.0 0.0 0.00 0.00 0.00 85 1014.8
20211018084016 47 0.0 0.0 0.00 0.00 0.00 85 1014.9
20211018083023 47 0.0 0.0 0.00 0.00 0.00 86 1014.8
20211018082021 47 0.0 0.0 0.00 0.00 0.00 85 1014.8